TimeEST,TemperatureF,Dew PointF,Humidity,Sea Level PressureIn,VisibilityMPH,Wind Direction,Wind SpeedMPH,Gust SpeedMPH,PrecipitationIn,Events,Conditions,WindDirDegrees,DateUTC
12:17 AM,17.6,8.6,68,30.32,10.0,West,15.0,-,N/A,,Scattered Clouds,270,2013-12-24 05:17:00
12:52 AM,17.1,8.1,68,30.36,10.0,West,15.0,-,N/A,,Clear,260,2013-12-24 05:52:00
1:52 AM,15.1,6.1,68,30.36,10.0,West,13.8,-,N/A,,Clear,260,2013-12-24 06:52:00
2:52 AM,14.0,6.1,71,30.38,10.0,West,16.1,-,N/A,,Clear,270,2013-12-24 07:52:00
3:52 AM,12.9,5.0,71,30.39,10.0,West,11.5,-,N/A,,Clear,260,2013-12-24 08:52:00
4:48 AM,12.2,3.2,67,30.35,10.0,West,16.1,-,N/A,,Mostly Cloudy,270,2013-12-24 09:48:00
4:52 AM,12.0,3.0,67,30.39,10.0,West,16.1,-,N/A,,Scattered Clouds,270,2013-12-24 09:52:00
5:52 AM,10.9,3.9,73,30.41,10.0,West,13.8,-,N/A,,Mostly Cloudy,280,2013-12-24 10:52:00
5:59 AM,10.4,3.2,73,30.37,10.0,West,15.0,20.7,N/A,,Mostly Cloudy,270,2013-12-24 10:59:00
6:14 AM,10.4,3.2,73,30.37,10.0,West,12.7,-,N/A,,Mostly Cloudy,270,2013-12-24 11:14:00
6:52 AM,10.9,3.9,73,30.42,10.0,West,15.0,-,N/A,,Scattered Clouds,270,2013-12-24 11:52:00
7:38 AM,10.4,3.2,73,30.40,9.0,West,10.4,-,0.00,Snow,Light Snow,270,2013-12-24 12:38:00
7:52 AM,10.9,5.0,77,30.45,9.0,West,10.4,-,0.00,Snow,Light Snow,270,2013-12-24 12:52:00
8:52 AM,12.0,5.0,73,30.47,8.0,West,11.5,-,0.00,Snow,Light Snow,280,2013-12-24 13:52:00
9:21 AM,12.2,6.8,79,30.45,4.0,West,15.0,-,0.00,Snow,Light Snow,260,2013-12-24 14:21:00
9:52 AM,12.0,6.1,77,30.50,6.0,West,15.0,-,0.00,Snow,Light Snow,280,2013-12-24 14:52:00
10:52 AM,12.9,6.1,74,30.51,9.0,West,16.1,-,0.00,Snow,Light Snow,270,2013-12-24 15:52:00
11:12 AM,14.0,6.8,73,30.47,10.0,West,15.0,-,0.00,,Scattered Clouds,260,2013-12-24 16:12:00
11:52 AM,16.0,7.0,68,30.51,10.0,West,12.7,-,0.00,,Scattered Clouds,270,2013-12-24 16:52:00
12:21 PM,17.6,6.8,63,30.47,10.0,West,9.2,-,N/A,,Mostly Cloudy,280,2013-12-24 17:21:00
12:43 PM,17.6,6.8,63,30.46,10.0,West,9.2,-,N/A,,Scattered Clouds,260,2013-12-24 17:43:00
12:52 PM,17.1,7.0,65,30.50,10.0,West,10.4,-,N/A,,Scattered Clouds,280,2013-12-24 17:52:00
1:52 PM,19.9,8.1,60,30.49,10.0,WNW,9.2,-,N/A,,Partly Cloudy,290,2013-12-24 18:52:00
2:52 PM,19.9,9.0,62,30.51,10.0,West,8.1,-,N/A,,Mostly Cloudy,280,2013-12-24 19:52:00
3:52 PM,21.0,9.0,60,30.52,10.0,West,9.2,-,N/A,,Overcast,280,2013-12-24 20:52:00
4:52 PM,21.0,10.9,65,30.54,10.0,SW,6.9,-,N/A,,Overcast,220,2013-12-24 21:52:00
5:52 PM,19.0,10.0,68,30.56,10.0,WSW,11.5,-,N/A,,Overcast,250,2013-12-24 22:52:00
6:23 PM,17.6,10.4,73,30.51,10.0,WSW,6.9,-,N/A,,Mostly Cloudy,240,2013-12-24 23:23:00
6:31 PM,17.6,10.4,73,30.51,10.0,SW,6.9,-,N/A,,Mostly Cloudy,230,2013-12-24 23:31:00
6:52 PM,17.1,10.0,74,30.56,10.0,WSW,4.6,-,N/A,,Clear,240,2013-12-24 23:52:00
7:52 PM,14.0,9.0,80,30.57,10.0,Calm,Calm,-,N/A,,Clear,0,2013-12-25 00:52:00
8:52 PM,12.0,9.0,88,30.57,10.0,Calm,Calm,-,N/A,,Clear,0,2013-12-25 01:52:00
9:52 PM,14.0,10.0,84,30.56,10.0,SSW,4.6,-,N/A,,Clear,210,2013-12-25 02:52:00
10:52 PM,10.9,8.1,88,30.55,10.0,Calm,Calm,-,N/A,,Clear,0,2013-12-25 03:52:00
11:52 PM,10.9,8.1,88,30.54,10.0,Calm,Calm,-,N/A,,Clear,0,2013-12-25 04:52:00